Location: Robert Ferguson Observatory
(38.4385°N, 122.5078°W)
Time: 23:14:22
(UTC-07:00)

Daily predictions for brighter satellites

Satellite Brightness Start Highest point End
(mag) Time Altitude Azimuth Time Altitude Azimuth Time Altitude Azimuth
Helios 1B rocket 4.1 19:51:08 10° ENE 19:53:17 14° E 19:55:27 10° SE
Cosmos 1437 Rocket 3.0 19:52:02 10° S 19:55:54 51° E 19:59:51 10° NNE
METEOR-M 4.3 19:50:48 10° S 19:56:08 80° WSW 20:01:30 10° NNW
SJ-6B 2.6 19:53:34 10° SSE 19:57:16 70° ENE 20:01:00 10° N
Lacrosse 4 Rocket 1.3 19:56:50 10° SSW 20:00:53 87° ESE 20:04:57 10° NNE
Resurs 1-3 4.2 20:02:24 10° SE 20:06:24 36° ENE 20:10:26 10° N
Tiangong 1 1.4 20:15:35 10° WNW 20:18:27 47° NNE 20:20:12 19° E
Spot 2 Rocket 3.6 20:14:09 10° SSE 20:19:09 59° ENE 20:24:11 10° N
Cosmos 2344 3.6 20:13:02 10° SSW 20:20:42 80° ESE 20:29:05 10° NE
Cosmos 1844 Rocket 3.3 20:15:49 10° SSW 20:21:24 63° WNW 20:27:01 10° NNE
Cosmos 2150 Rocket 4.1 20:16:18 10° SSW 20:21:27 80° WNW 20:26:37 10° NNE
In-Cosmos 22 4.5 20:16:42 10° N 20:21:44 41° ENE 20:26:41 10° SSE
Cosmos 1378 3.1 20:19:27 10° N 20:23:14 89° E 20:26:58 10° S
Cosmos 1953 3.3 20:24:02 10° SSE 20:27:26 26° E 20:30:51 10° NNE
USA 186 2.5 20:28:05 21° NE 20:28:05 21° NE 20:29:23 10° NNE
FengYun 1-2 T 4.4 20:25:22 10° S 20:30:55 79° WSW 20:36:33 10° NNW
Cosmos 2278 Rocket 2.2 20:25:20 10° S 20:30:56 65° ESE 20:36:34 10° NNE
H-2A R/B 2.7 20:28:10 10° SSE 20:32:02 88° ENE 20:35:58 10° N
Cosmos 1833 Rocket 4.1 20:28:34 10° N 20:32:38 20° NE 20:34:24 17° ENE
USA 215 3.3 20:27:03 10° NE 20:33:27 55° SE 20:39:47 10° SSW
Okean 3 Rocket 3.9 20:29:19 10° N 20:33:31 43° E 20:36:56 15° SSE
Cosmos 990 Rocket 4.1 20:29:27 10° SSW 20:34:43 81° WNW 20:39:59 10° NNE
Envisat 3.8 20:34:42 21° ESE 20:37:09 32° ENE 20:41:36 10° N
Cosmos 1934 Rocket 4.1 20:34:03 10° S 20:40:12 80° W 20:46:20 10° N
FENGYUN 3A 4.3 20:35:07 10° S 20:40:27 59° W 20:45:47 10° NNW
SAR-Lupe-1 4.4 20:39:57 29° ESE 20:41:14 42° ENE 20:44:39 10° N
Cosmos 1125 Rocket 3.9 20:37:54 10° SSE 20:42:39 38° ESE 20:47:27 10° NE
Cosmos 2297 4.2 20:38:18 10° S 20:43:26 36° ESE 20:48:37 10° NE
CZ-4B DEB 3.6 20:46:52 31° NE 20:46:52 31° NE 20:49:12 10° N
Meteor 1-24 Rocket 4.0 20:42:22 10° NNW 20:47:49 70° W 20:53:26 10° S
Meteor 1-4 Rocket 2.7 20:48:51 43° ESE 20:48:58 43° E 20:52:18 10° NNE
Cosmos 1544 2.9 20:47:25 10° S 20:51:00 68° E 20:54:39 10° NNE
Cosmos 1766 4.1 20:48:23 10° SSW 20:52:10 51° W 20:55:58 10° N
Geosat 4.3 20:48:05 10° NNE 20:53:06 69° WNW 20:58:04 10° SW
ALOS 3.9 20:49:15 10° SSW 20:53:31 36° W 20:57:50 10° NNW
GP-B 3.3 20:52:13 30° SE 20:54:01 47° E 20:58:17 10° N
Resurs 01 Rocket 2.4 20:50:53 10° S 20:55:10 51° W 20:59:30 10° NNW
SL-27 R/B 2.8 20:52:17 10° NNW 20:55:50 65° WSW 20:58:00 22° S
RESURS DK-1 2.3 20:51:52 10° NNW 20:56:01 84° WSW 20:58:05 29° SSE
Meteor 1-29 2.8 20:55:48 10° NNE 20:59:16 66° ESE 21:00:09 45° SSE
COSMOS 2487 4.4 20:57:09 10° NNE 20:58:42 18° NNE 20:58:42 18° NNE
Cosmos 2082 Rocket 2.8 20:57:10 10° N 21:02:26 37° ENE 21:03:32 34° E
ERS-1 Rocket 3.8 21:03:31 31° ENE 21:03:31 31° ENE 21:07:53 10° N
Cosmos 1818 3.9 21:00:11 10° NNW 21:05:26 47° NE 21:06:41 40° E
Lacrosse 5 2.6 21:06:16 10° WSW 21:11:13 53° NW 21:16:11 10° NE
Cosmos 1766 Rocket 3.7 21:07:59 10° N 21:12:21 54° ENE 21:12:21 54° ENE
Cosmos 1076 Rocket 3.3 21:08:29 10° N 21:12:45 78° E 21:13:28 60° SSE
Delta 2 Rocket 3.9 21:09:46 10° W 21:14:03 43° SSW 21:14:18 42° S
Timation 1 Rocket 4.2 21:09:39 10° SSW 21:15:40 85° ESE 21:21:43 10° NNE
Cosmos 2100 Rocket 4.0 21:13:07 20° SSE 21:17:29 58° E 21:23:42 10° NNE
Cosmos 1269 Rocket 4.0 21:15:19 10° N 21:20:33 59° ENE 21:21:03 56° E
Cosmos 2098 Rocket 4.4 21:14:36 10° S 21:21:31 84° W 21:29:11 10° N
Meteor 1-21 Rocket 4.2 21:22:21 10° N 21:28:11 86° W 21:30:51 35° S
Helios 1B rocket 3.6 21:24:52 10° N 21:28:47 42° WNW 21:32:40 10° SW
Helios 1A 4.1 21:27:24 24° SSW 21:29:29 42° W 21:33:28 10° NNW
Cosmos 1674 3.7 21:26:04 10° N 21:28:28 37° N 21:28:28 37° N
Cosmos-2242 4.0 21:35:33 38° N 21:35:33 38° N 21:38:12 10° N
Cosmos 1802 Rocket 3.8 21:34:35 61° ESE 21:35:02 63° E 21:41:06 10° NNE
Cosmos 1867 3.5 21:33:23 10° SSW 21:38:50 85° WNW 21:44:20 10° NNE
Cosmos 2061 Rocket 3.9 21:41:04 45° S 21:43:13 81° E 21:49:40 10° N
Timation 2 Rocket 3.8 21:43:23 10° NNW 21:49:44 74° ENE 21:49:45 74° ENE
Cosmos 372 Rocket 4.4 21:48:50 10° SSW 21:53:52 60° WNW 21:58:58 10° N
CZ-3B DEB 4.2 21:49:56 10° W 21:57:31 28° NW 22:01:04 13° NNE
H-2A R/B 4.0 22:07:10 20° NNE 22:07:10 20° NNE 22:09:05 10° N
BREEZE-M DEB (TANK) 3.9 22:08:47 10° WSW 22:12:55 74° NNW 22:29:19 10° ENE
USA 215 4.2 22:10:11 10° NE 22:16:19 44° NNW 22:22:25 10° WSW
Cosmos 1833 Rocket 3.3 22:11:26 10° NNW 22:16:07 53° WNW 22:16:07 53° WNW
Lacrosse 5 rocket 4.4 22:26:22 10° NNW 22:26:35 11° NNW 22:26:35 11° NNW
Cosmos 2082 Rocket 3.9 22:41:32 10° NW 22:45:24 27° W 22:45:24 27° W
USA 267 3.9 22:49:22 50° NNW 22:49:22 50° NNW 22:54:04 10° NW
